Grand Marais, MN

5:03 AM CST on November 12, 2019 (GMT -0600)
Grand Marais

Weather History for KGNA - September, 2019

Change the Weather History Date:

Monday, September 16, 2019

  Actual Average (KCKC) Record (KCKC)
Temperature  
Mean Temperature 56 °F -  
Max Temperature 62 °F 60 °F 125 °F (1997)
Min Temperature 52 °F 42 °F 1 °F (1999)
Degree Days  
Heating Degree Days 8    
Growing Degree Days 6 (Base 50)    
Moisture  
Dew Point 54 °F    
Average Humidity 97    
Maximum Humidity 100    
Minimum Humidity 93    
Precipitation  
Precipitation 0.00 in - - ()
Sea Level Pressure  
Sea Level Pressure 30.06 in    
Wind  
Wind Speed 2 mph (ENE)    
Max Wind Speed 9 mph    
Max Gust Speed -    
Averages and records for this station are not official NWS values.
T = Trace of Precipitation, MM = Missing Value Source: NWS Daily Summary

Daily Weather History Graph

Daily Weather History Graph

Search for Another Location

Airport or City:

Astronomy

Sep. 16, 2019 Rise Set
Actual Time 6:39 AM CDT 7:11 PM CDT
Civil Twilight 6:08 AM CDT 7:42 PM CDT
Nautical Twilight 5:31 AM CDT 8:19 PM CDT
Astronomical Twilight 4:53 AM CDT 8:57 PM CDT
Moon 8:38 PM CDT (9/16) 8:53 AM CDT (9/16)
Length of Visible Light 13h 34m
Length of Day
12h 32m
Waning Gibbous, 94% of the Moon is Illuminated
Sep 16
Waning Gibbous
Sep 21
Last Quarter
Sep 28
New
Oct 5
First Quarter
Oct 13
Full

Hourly Weather History & Observations

Time (CDT) Temp. Dew Point Humidity Pressure Visibility Wind Dir Wind Speed Gust Speed Precip Events Conditions
12:56 AM 54.0 °F 54.0 °F 100% 30.04 in - Calm Calm - N/A   Unknown
1:56 AM 54.0 °F 53.1 °F 97% 30.04 in - Calm Calm - N/A   Unknown
2:56 AM 52.0 °F 51.1 °F 97% 30.05 in - Calm Calm - N/A   Unknown
3:56 AM 52.0 °F 52.0 °F 100% 30.06 in - Calm Calm - N/A   Unknown
4:56 AM 52.0 °F 52.0 °F 100% 30.06 in - Calm Calm - N/A   Unknown
5:56 AM 53.1 °F 52.0 °F 96% 30.06 in - Calm Calm - N/A   Unknown
6:56 AM 53.1 °F 52.0 °F 96% 30.08 in - Calm Calm - N/A   Unknown
7:56 AM 52.0 °F 52.0 °F 100% 30.09 in - Calm Calm - N/A   Unknown
8:56 AM 52.0 °F 52.0 °F 100% 30.10 in - Calm Calm - N/A   Unknown
9:56 AM 52.0 °F 52.0 °F 100% 30.10 in - Calm Calm - N/A   Unknown
10:56 AM 53.1 °F 53.1 °F 100% 30.11 in - East 3.5 mph - N/A   Unknown
11:56 AM 54.0 °F 53.1 °F 97% 30.10 in - ENE 3.5 mph - N/A   Unknown
12:56 PM 54.0 °F 53.1 °F 97% 30.09 in - ENE 4.6 mph - N/A   Unknown
1:56 PM 54.0 °F 53.1 °F 97% 30.08 in - ENE 5.8 mph - N/A   Unknown
2:56 PM 55.0 °F 53.1 °F 93% 30.07 in - ENE 4.6 mph - N/A   Unknown
3:56 PM 55.0 °F 53.1 °F 93% 30.07 in - ENE 6.9 mph - N/A   Unknown
4:56 PM 55.9 °F 54.0 °F 93% 30.04 in - ENE 9.2 mph - N/A   Unknown
5:56 PM 55.0 °F 54.0 °F 96% 30.04 in - ENE 6.9 mph - N/A   Unknown
6:56 PM 57.9 °F 55.9 °F 93% 30.03 in - ENE 8.1 mph - N/A   Unknown
7:56 PM 57.0 °F 55.9 °F 96% 30.02 in - NE 3.5 mph - N/A   Unknown
8:56 PM 61.0 °F 59.0 °F 93% 30.02 in - NE 6.9 mph - N/A   Unknown
9:56 PM 59.0 °F 57.9 °F 96% 30.02 in - Calm Calm - N/A   Unknown
10:56 PM 57.0 °F 55.9 °F 96% 30.02 in - ENE 3.5 mph - N/A   Unknown
11:56 PM 57.9 °F 57.0 °F 97% 30.01 in - Calm Calm - N/A   Unknown